Creek Data

    Home     View Charts     View Raw Data     Messages

ID Distance Battery Voltage Battery Current Internal Temp Internal Humidity External Temp Solar Input rssi snr Time Stamp Record
36897 0.0 3.82 -5 55 43 56 0 -75 8 04/04/2025 09:00 PM 18761
36896 15.0 3.83 -5 56 44 57 0 -75 8 04/04/2025 08:45 PM 18760
36895 15.0 3.79 -5 57 44 58 0.1 -75 8 04/04/2025 08:30 PM 18759
36894 0.0 3.81 -5 59 46 60 0 -75 8 04/04/2025 08:00 PM 18757
36893 0.0 3.82 -5 60 47 60 0.4 -75 7 04/04/2025 07:45 PM 18756
36892 0.0 3.78 -10 63 47 62 1.6 -74 8 04/04/2025 07:30 PM 18755
36891 0.0 3.72 0 66 47 64 4.5 -74 9 04/04/2025 07:15 PM 18754
36890 0.0 3.98 8 70 45 65 4.5 -75 9 04/04/2025 07:00 PM 18753
36889 0.0 3.92 0 74 44 68 4.5 -77 9 04/04/2025 06:45 PM 18752
36888 0.0 3.88 0 76 43 69 5.1 -78 8 04/04/2025 06:31 PM 18751
36887 0.0 4.02 0 77 42 70 5.1 -77 9 04/04/2025 06:15 PM 18750
36886 0.0 3.88 0 78 42 70 5.1 -77 8 04/04/2025 06:00 PM 18749
36885 0.0 3.89 0 80 41 71 5.1 -77 9 04/04/2025 05:45 PM 18748
36884 0.0 3.89 0 80 40 72 5.1 -77 9 04/04/2025 05:30 PM 18747
36883 0.0 3.89 0 80 40 72 5.1 -75 8 04/04/2025 05:15 PM 18746
36882 0.0 3.89 0 80 40 72 5.1 -78 9 04/04/2025 05:00 PM 18745
36881 0.0 3.89 0 80 40 72 5.1 -75 8 04/04/2025 04:45 PM 18744
36880 0.0 3.89 0 81 40 72 5.1 -79 8 04/04/2025 04:30 PM 18743
36879 0.0 3.89 0 81 39 72 5.1 -78 9 04/04/2025 04:15 PM 18742
36878 0.0 3.89 0 81 39 73 5.1 -76 9 04/04/2025 04:00 PM 18741
36877 0.0 3.89 0 81 38 72 5.1 -76 9 04/04/2025 03:45 PM 18740
36876 0.0 3.89 0 81 38 72 5.1 -77 9 04/04/2025 03:30 PM 18739
36875 0.0 3.89 0 80 38 71 5.1 -75 9 04/04/2025 03:15 PM 18738
36874 0.0 3.91 0 80 38 71 5.1 -78 9 04/04/2025 03:00 PM 18737
36873 0.0 3.89 0 80 38 71 5.1 -76 9 04/04/2025 02:45 PM 18736